Location: USNO
(38.9210°N, 77.0670°W)
Time: 18:46:23
(UTC-04:00)

ISS - Visible Passes

Search period start: 19 May 2022 00:00
Search period end: 29 May 2022 00:00
Orbit: 415 x 421 km, 51.6° (Epoch: 19 May)

Date Brightness Start Highest point End Pass type
(mag) Time Alt. Az. Time Alt. Az. Time Alt. Az.
19 May -0.4 00:24:59 10° N 00:26:10 12° N 00:26:10 12° N visible
19 May -0.5 21:58:49 10° NW 22:00:06 12° NNW 22:01:22 10° N visible
19 May -0.4 23:37:33 10° N 23:38:07 10° N 23:38:40 10° NNE visible
20 May -0.7 21:09:58 10° NW 21:11:52 14° NNW 21:13:47 10° NNE visible
21 May -0.5 00:25:13 10° NNW 00:26:06 14° NNW 00:26:06 14° NNW visible
21 May -0.9 23:37:32 10° NNW 23:39:30 14° NNE 23:39:38 14° NNE visible
22 May -0.4 21:12:44 10° NNW 21:13:13 10° N 21:13:42 10° N visible
22 May -0.7 22:49:54 10° N 22:51:14 12° NNE 22:52:34 10° NE visible
23 May -0.5 00:25:36 10° NW 00:26:04 13° NW 00:26:04 13° NW visible
23 May -0.6 22:02:24 10° N 22:02:55 10° N 22:03:25 10° NNE visible
23 May -1.3 23:37:46 10° NNW 23:39:37 22° N 23:39:37 22° N visible
24 May -1.4 22:49:58 10° NNW 22:52:25 18° NNE 22:53:10 17° NE visible
25 May -1.0 22:02:13 10° NNW 22:04:08 14° NNE 22:06:03 10° NE visible
25 May -1.4 23:38:08 10° NW 23:39:37 24° NW 23:39:37 24° NW visible
26 May -0.9 21:14:31 10° N 21:15:48 12° NNE 21:17:04 10° NE visible
26 May -2.5 22:50:11 10° NW 22:53:11 36° NNE 22:53:11 36° NNE visible
27 May -1.9 22:02:17 10° NNW 22:05:07 24° NNE 22:06:46 17° ENE visible
27 May -1.1 23:38:48 10° WNW 23:39:40 16° WNW 23:39:40 16° WNW visible
28 May -1.4 21:14:25 10° NNW 21:16:49 18° NNE 21:19:13 10° ENE visible
28 May -3.1 22:50:35 10° NW 22:53:16 54° WNW 22:53:16 54° WNW visible
